DW3733 Luzzi (cosenza) IT current weather conditions

sailwx.info

Wind from 100 at 1 knots gusting 2

Air temperature 27.2° C
Dewpoint 18.5° C

Last reported at 2015-Jul-06 18:43 UTC.
Time now 2015-Jul-06 20:02 UTC

Location: N 39°27' E 016°16'.
View on Google Maps.

See reports from other nearby stations

  
Tides and Currents Weather Stations Pressure Air Temp Water Temp Dewpoint Dewpoint Depression Visibility Wind Speed Wind Dir Waves Ship Positions
date/time (UTC)wind fromknots sea level pressurealtimeterstation pressurevisibilityair tempwater tempwave heightnotes
2015-Jul-06 18:43 100 1 gusting 2 27.2
2015-Jul-06 18:33 077 0 gusting 2 27.8
2015-Jul-06 18:23 057 0 gusting 4 28.3
2015-Jul-06 18:13 090 0 gusting 2 30.0
2015-Jul-06 18:03 019 0 gusting 2 30.6
2015-Jul-06 17:53 090 0 gusting 2 30.6
2015-Jul-06 17:43 070 0 gusting 4 31.1
2015-Jul-06 17:33 31.1
2015-Jul-06 17:23 306 1 gusting 6 31.7
2015-Jul-06 17:13 32.2
2015-Jul-06 17:03 355 1 gusting 6 32.2
2015-Jul-06 16:53 315 2 gusting 6 32.2
2015-Jul-06 16:43 011 2 gusting 6 32.8
2015-Jul-06 16:33 135 2 gusting 6 32.8
2015-Jul-06 16:23 32.8
2015-Jul-06 16:13 328 2 gusting 8 32.8
2015-Jul-06 16:03 33.3
2015-Jul-06 15:53 33.9
2015-Jul-06 15:43 275 3 gusting 11 33.9
2015-Jul-06 15:33 024 4 gusting 8 34.4
2015-Jul-06 15:23 354 4 gusting 8 34.4
2015-Jul-06 15:13 013 5 gusting 8 34.4
2015-Jul-06 15:03 315 3 gusting 7 35.0
2015-Jul-06 14:53 358 6 gusting 8 35.0
2015-Jul-06 14:43 035 5 gusting 8 35.0
2015-Jul-06 14:33 35.0
2015-Jul-06 14:23 315 4 gusting 7 35.0
2015-Jul-06 14:13 172 2 gusting 6 35.6
2015-Jul-06 14:03 292 5 gusting 7 35.6
2015-Jul-06 13:53 230 5 gusting 10 35.6
2015-Jul-06 13:43 077 2 gusting 6 35.6
2015-Jul-06 13:33 010 2 gusting 7 35.6
2015-Jul-06 13:23 292 3 gusting 7 35.6
2015-Jul-06 13:13 022 3 gusting 6 36.1
2015-Jul-06 13:03 045 1 gusting 6 35.6
2015-Jul-06 12:53 059 2 gusting 6 35.6
2015-Jul-06 12:43 317 2 gusting 6 35.6
2015-Jul-06 12:33 257 2 gusting 5 35.6
2015-Jul-06 12:23 076 1 gusting 6 35.0
2015-Jul-06 12:13 35.0
2015-Jul-06 12:03 045 2 gusting 5 35.0
2015-Jul-06 11:53 246 0 gusting 6 34.4
2015-Jul-06 11:43 017 3 gusting 6 34.4
2015-Jul-06 11:33 236 2 gusting 6 34.4
2015-Jul-06 11:23 313 3 gusting 7 34.4
2015-Jul-06 11:13 338 2 gusting 6 34.4
2015-Jul-06 11:03 355 1 gusting 6 34.4
2015-Jul-06 10:53 353 0 gusting 6 33.9
2015-Jul-06 10:43 342 2 gusting 6 33.9
2015-Jul-06 10:33 021 2 gusting 6 33.9
2015-Jul-06 10:23 005 0 gusting 6 34.4
2015-Jul-06 10:13 315 0 gusting 4 33.9
2015-Jul-06 10:03 090 0 gusting 6 33.9
2015-Jul-06 09:53 331 1 gusting 2 33.9
2015-Jul-06 09:43 310 1 gusting 5 33.3
2015-Jul-06 09:33 005 1 gusting 5 33.3
2015-Jul-06 09:23 32.8
2015-Jul-06 09:13 315 0 gusting 5 32.2
2015-Jul-06 09:03 32.2
2015-Jul-06 08:53 352 1 gusting 2 31.7
2015-Jul-06 08:43 336 0 gusting 2 31.7
2015-Jul-06 08:33 178 0 gusting 2 31.1
2015-Jul-06 08:23 030 0 gusting 2 30.6
2015-Jul-06 08:13 351 0 gusting 1 30.6
2015-Jul-06 08:03 135 0 gusting 2 29.4
2015-Jul-06 07:53 350 0 gusting 2 29.4
2015-Jul-06 07:43 096 0 gusting 1 28.9
2015-Jul-06 07:33 159 28.3
2015-Jul-06 07:23 28.3
2015-Jul-06 07:13 021 0 gusting 2 27.8
2015-Jul-06 07:03 007 0 gusting 2 27.2
2015-Jul-06 06:53 132 0 gusting 1 26.7
2015-Jul-06 06:43 067 26.1
2015-Jul-06 06:33 090 0 gusting 2 25.6
2015-Jul-06 06:23 196 25.0
2015-Jul-06 06:13 189 0 gusting 1 25.0
2015-Jul-06 06:03 091 0 gusting 1 24.4
2015-Jul-06 05:53 045 23.9
2015-Jul-06 05:43 069 23.3
2015-Jul-06 05:33 169 0 gusting 2 22.2
2015-Jul-06 05:23 090 0 gusting 0 21.7
2015-Jul-06 05:13 135 0 gusting 0 20.6
2015-Jul-06 05:03 199 0 gusting 0 20.0
2015-Jul-06 04:53 090 18.9
2015-Jul-06 04:43 090 1 gusting 2 18.3
2015-Jul-06 04:33 090 17.8
2015-Jul-06 04:23 090 0 gusting 1 17.2
2015-Jul-06 04:13 135 17.2
2015-Jul-06 04:03 102 0 gusting 1 17.2
2015-Jul-06 03:53 090 0 gusting 0 17.2
2015-Jul-06 03:43 090 0 gusting 1 16.7
2015-Jul-06 03:33 090 0 gusting 2 16.7
2015-Jul-06 03:23 090 0 gusting 2 16.7
2015-Jul-06 03:13 090 1 gusting 2 16.7
2015-Jul-06 03:03 090 1 gusting 2 17.2
2015-Jul-06 02:53 090 0 gusting 1 17.8
2015-Jul-06 02:43 090 0 gusting 1 17.2
2015-Jul-06 02:33 090 0 gusting 2 17.2
2015-Jul-06 02:23 090 1 gusting 2 17.2
2015-Jul-06 02:13 122 0 gusting 2 17.2
2015-Jul-06 02:03 090 0 gusting 2 17.8
2015-Jul-06 01:53 090 0 gusting 2 17.8
2015-Jul-06 01:43 090 1 gusting 2 17.8
2015-Jul-06 01:33 090 0 gusting 1 17.8
2015-Jul-06 01:23 090 0 gusting 1 17.8
2015-Jul-06 01:13 066 0 gusting 2 17.8
2015-Jul-06 01:03 019 0 gusting 2 18.3
2015-Jul-06 00:53 090 0 gusting 2 17.8
2015-Jul-06 00:43 090 1 gusting 2 18.3
2015-Jul-06 00:33 090 18.3
2015-Jul-06 00:23 090 0 gusting 2 18.3
2015-Jul-06 00:13 090 0 gusting 2 18.3
2015-Jul-06 00:03 090 1 gusting 2 18.3
2015-Jul-05 23:53 090 1 gusting 2 18.9
2015-Jul-05 23:43 045 0 gusting 2 18.9
2015-Jul-05 23:33 090 0 gusting 2 19.4
2015-Jul-05 23:23 098 1 gusting 2 19.4
2015-Jul-05 23:13 045 0 gusting 2 20.0
2015-Jul-05 23:03 090 1 gusting 2 20.0
2015-Jul-05 22:53 090 0 gusting 2 20.0
2015-Jul-05 22:43 090 1 gusting 2 20.6
2015-Jul-05 22:33 090 1 gusting 2 21.1
2015-Jul-05 22:23 069 21.1
2015-Jul-05 22:13 090 0 gusting 1 21.1
2015-Jul-05 22:03 090 0 gusting 2 21.7
2015-Jul-05 21:53 052 0 gusting 2 21.7
2015-Jul-05 21:43 105 0 gusting 2 21.7
2015-Jul-05 21:33 090 1 gusting 2 22.2
2015-Jul-05 21:23 111 0 gusting 1 22.8
2015-Jul-05 21:13 120 22.8
2015-Jul-05 21:03 090 23.3
2015-Jul-05 20:53 088 23.3
2015-Jul-05 20:43 090 0 gusting 2 23.9
2015-Jul-05 20:33 23.9
2015-Jul-05 20:23 069 1 gusting 2 23.9
2015-Jul-05 20:13 045 0 gusting 2 23.9
2015-Jul-05 20:03 045 24.4
2015-Jul-05 19:53 086 0 gusting 2 24.4
2015-Jul-05 19:43 103 0 gusting 1 24.4
2015-Jul-05 19:33 113 1 gusting 2 25.0
2015-Jul-05 19:23 090 0 gusting 4 25.0
2015-Jul-05 19:13 114 0 gusting 2 25.6
2015-Jul-05 19:03 076 0 gusting 2 26.1
2015-Jul-05 18:53 090 0 gusting 2 26.7
2015-Jul-05 18:43 068 1 gusting 2 28.3
2015-Jul-05 18:33 049 28.9
2015-Jul-05 18:23 066 0 gusting 4 29.4
2015-Jul-05 18:13 307 2 gusting 5 29.4
2015-Jul-05 18:03 135 2 gusting 5 30.0
2015-Jul-05 17:53 033 1 gusting 5 30.6
2015-Jul-05 17:43 358 1 gusting 4 30.6
2015-Jul-05 17:33 341 1 gusting 5 31.1
2015-Jul-05 17:23 320 1 gusting 5 31.7
2015-Jul-05 17:13 351 1 gusting 4 31.7
2015-Jul-05 17:03 315 1 gusting 5 31.7
2015-Jul-05 16:53 315 2 gusting 5 31.7
2015-Jul-05 16:43 333 1 gusting 5 31.7
2015-Jul-05 16:33 217 1 gusting 5 31.7
2015-Jul-05 16:23 178 2 gusting 5 32.2
2015-Jul-05 16:13 021 0 gusting 4 31.7
2015-Jul-05 16:03 037 0 gusting 5 32.2
2015-Jul-05 15:53 045 3 gusting 6 32.2
2015-Jul-05 15:43 045 1 gusting 5 32.8
2015-Jul-05 15:33 025 0 gusting 5 33.3
2015-Jul-05 15:23 245 0 gusting 2 33.3
2015-Jul-05 15:13 086 1 gusting 5 33.3
2015-Jul-05 15:03 225 1 gusting 6 33.3
2015-Jul-05 14:53 33.3
2015-Jul-05 14:43 225 1 gusting 6 33.3
2015-Jul-05 14:33 189 0 gusting 6 33.3
2015-Jul-05 14:23 212 1 gusting 6 33.9
2015-Jul-05 14:13 225 1 gusting 5 33.3
2015-Jul-05 14:03 180 0 gusting 6 32.8
2015-Jul-05 13:53 024 2 gusting 6 33.3
2015-Jul-05 13:43 302 2 gusting 6 32.8
2015-Jul-05 13:33 340 2 gusting 6 32.8
2015-Jul-05 13:23 127 5 gusting 6 33.3
2015-Jul-05 13:13 255 1 gusting 5 33.3
2015-Jul-05 13:03 227 2 gusting 6 32.8
2015-Jul-05 12:53 315 0 gusting 6 32.8
2015-Jul-05 12:43 046 1 gusting 5 32.8
2015-Jul-05 12:33 334 1 gusting 5 32.8
2015-Jul-05 12:23 350 1 gusting 6 33.3
2015-Jul-05 12:13 135 1 gusting 5 32.8
2015-Jul-05 12:03 32.2
2015-Jul-05 11:53 353 3 gusting 6 32.2
2015-Jul-05 11:43 326 4 gusting 8 31.7
2015-Jul-05 11:33 342 2 gusting 7 32.2
2015-Jul-05 11:23 045 2 gusting 7 32.8
2015-Jul-05 11:13 357 2 gusting 5 32.8
2015-Jul-05 11:03 176 1 gusting 5 32.2
2015-Jul-05 10:53 045 1 gusting 6 31.7
2015-Jul-05 10:43 067 2 gusting 5 32.2
2015-Jul-05 10:33 040 1 gusting 4 32.2
2015-Jul-05 10:23 007 0 gusting 5 31.7
2015-Jul-05 10:13 188 0 gusting 4 31.1
2015-Jul-05 10:03 090 0 gusting 4 31.1
2015-Jul-05 09:53 31.1
2015-Jul-05 09:43 31.1
2015-Jul-05 09:33 063 1 gusting 4 30.6
2015-Jul-05 09:23 319 1 gusting 5 30.6
2015-Jul-05 09:13 001 1 gusting 4 30.6
2015-Jul-05 09:03 30.0
2015-Jul-05 08:53 148 0 gusting 4 29.4
2015-Jul-05 08:43 29.4
2015-Jul-05 08:33 306 1 gusting 4 28.9
2015-Jul-05 08:23 313 1 gusting 4 28.9
2015-Jul-05 08:13 28.3
2015-Jul-05 08:03 315 0 gusting 6 27.8
2015-Jul-05 07:53 045 0 gusting 4 27.8
2015-Jul-05 07:43 326 1 gusting 4 27.2
2015-Jul-05 07:33 089 26.7
2015-Jul-05 07:23 092 0 gusting 2 26.7
2015-Jul-05 07:13 023 1 gusting 2 26.1
2015-Jul-05 07:03 090 0 gusting 2 25.6
2015-Jul-05 06:53 25.6
2015-Jul-05 06:43 25.0
2015-Jul-05 06:33 175 0 gusting 2 24.4
2015-Jul-05 06:23 103 0 gusting 2 23.9
2015-Jul-05 06:13 180 23.3
2015-Jul-05 06:03 164 22.8
2015-Jul-05 05:53 090 0 gusting 2 22.8
2015-Jul-05 05:43 036 22.2
2015-Jul-05 05:33 21.7
2015-Jul-05 05:23 045 0 gusting 2 21.1
2015-Jul-05 05:13 129 0 gusting 0 20.6
2015-Jul-05 05:03 119 20.0
2015-Jul-05 04:53 206 0 gusting 0 19.4
2015-Jul-05 04:33 090 0 gusting 2 17.8
2015-Jul-05 04:23 046 0 gusting 2 17.8
2015-Jul-05 04:13 049 17.8
2015-Jul-05 04:03 130 0 gusting 2 17.2
2015-Jul-05 03:53 090 0 gusting 1 16.7
2015-Jul-05 03:43 068 0 gusting 2 16.7
2015-Jul-05 03:33 090 1 gusting 2 16.7
2015-Jul-05 03:23 090 0 gusting 2 17.2
2015-Jul-05 03:13 090 0 gusting 2 17.2
2015-Jul-05 03:03 090 0 gusting 2 17.2
2015-Jul-05 02:53 090 0 gusting 2 17.8
2015-Jul-05 02:43 090 1 gusting 2 17.8
2015-Jul-05 02:33 090 17.8
2015-Jul-05 02:23 090 0 gusting 2 17.8
2015-Jul-05 02:13 090 0 gusting 2 17.8
2015-Jul-05 02:03 090 17.8
2015-Jul-05 01:53 090 0 gusting 2 17.8
2015-Jul-05 01:43 090 0 gusting 2 17.8
2015-Jul-05 01:33 090 1 gusting 2 17.8
2015-Jul-05 01:23 090 1 gusting 2 18.3
2015-Jul-05 01:13 090 0 gusting 2 18.9
2015-Jul-05 01:03 090 1 gusting 2 18.9
2015-Jul-05 00:53 090 1 gusting 2 18.9
2015-Jul-05 00:33 090 0 gusting 2 19.4
2015-Jul-05 00:23 090 0 gusting 2 20.0
2015-Jul-05 00:13 045 19.4
2015-Jul-05 00:03 20.0
2015-Jul-04 23:53 090 0 gusting 2 20.0
2015-Jul-04 23:43 301 20.6
2015-Jul-04 23:33 045 20.6
2015-Jul-04 23:23 270 20.0
2015-Jul-04 23:13 071 0 gusting 2 20.6
2015-Jul-04 23:03 066 0 gusting 1 20.6
2015-Jul-04 22:53 090 0 gusting 2 20.6
2015-Jul-04 22:43 090 0 gusting 2 21.1
2015-Jul-04 22:33 090 0 gusting 2 21.7
2015-Jul-04 22:23 090 0 gusting 2 22.2
2015-Jul-04 22:13 277 0 gusting 2 22.2
2015-Jul-04 22:03 090 0 gusting 2 22.8
2015-Jul-04 21:53 070 0 gusting 1 22.8
2015-Jul-04 21:43 045 0 gusting 2 22.8
2015-Jul-04 21:33 089 0 gusting 4 22.8
2015-Jul-04 21:23 090 0 gusting 2 23.3
2015-Jul-04 21:13 072 0 gusting 4 23.3
2015-Jul-04 21:03 060 1 gusting 2 23.3
2015-Jul-04 20:53 014 0 gusting 4 23.9
2015-Jul-04 20:43 045 1 gusting 4 23.9
2015-Jul-04 20:33 090 0 gusting 2 24.4
2015-Jul-04 20:23 080 1 gusting 4 24.4
2015-Jul-04 20:13 036 0 gusting 2 25.6
2015-Jul-04 20:03 26.1